Location: Kumla
(59.1265°N, 15.1401°E)
Time: 23:31:54
(UTC+02:00)

ISS - Visible Passes

Search period start: 28 September 2023 00:00
Search period end: 08 October 2023 00:00
Orbit: 413 x 421 km, 51.6° (Epoch: 28 September)

Date Brightness Start Highest point End Pass type
(mag) Time Alt. Az. Time Alt. Az. Time Alt. Az.
28 Sep -1.3 20:05:33 10° WSW 20:07:28 15° SSW 20:09:23 10° SSE visible
29 Sep -1.4 19:17:08 10° WSW 19:19:25 17° SSW 19:21:42 10° SSE visible
01 Oct -1.0 19:17:39 10° SW 19:19:01 12° SSW 19:20:21 10° S visible
